Location: Marcé
(47.5801°N, 0.3280°W)
Time: 21:00:49
(UTC+01:00)

Explorer 7 - Pass Details

Date: 02 December 2021
Orbit: 483 x 674 km, 50.3° (Epoch: 17 January)

Event Time Altitude Azimuth Distance (km) Brightness Sun altitude
Rises 11:03:47 0° 284° (WNW) 2,674 10.0 16.4°
Reaches altitude 10° 11:06:04 10° 288° (WNW) 1,754 9.0 16.5°
Maximum altitude 11:10:00 64° 11° (N) 560 6.9 16.8°
Drops below altitude 10° 11:13:46 10° 93° (E) 1,681 9.7 17.1°
Sets 11:15:55 0° 97° (E) 2,550 10.6 17.2°
